Radiation Dose at Monitoring Post of Fukushima Daini Nuclear Power Station
Date,Time,MP-1(microSv/h),MP-2(microSv/h),MP-3(microSv/h),MP-4(microSv/h),MP-5(microSv/h),MP-6(microSv/h),MP-7(microSv/h),Wind Direction,Wind Velocity(m/s),Rain
2022/02/01,00:00,0.160,0.147,0.232,0.223,0.226,0.127,0.081,-,CALM,No
2022/02/01,00:10,0.161,0.148,0.230,0.224,0.226,0.127,0.080,north-northwest,1.9,No
2022/02/01,00:20,0.159,0.147,0.231,0.223,0.225,0.127,0.080,north,3.2,No
2022/02/01,00:30,0.160,0.148,0.231,0.223,0.225,0.126,0.081,north,4.1,No
2022/02/01,00:40,0.160,0.147,0.231,0.223,0.224,0.127,0.080,north-northeast,5.5,No
2022/02/01,00:50,0.160,0.148,0.232,0.224,0.225,0.127,0.081,north,5.1,No
2022/02/01,01:00,0.161,0.149,0.231,0.225,0.225,0.127,0.081,north,5.2,No
2022/02/01,01:10,0.161,0.147,0.230,0.223,0.225,0.127,0.080,north,4.9,No
2022/02/01,01:20,0.160,0.147,0.231,0.224,0.226,0.127,0.080,north,4.6,No
2022/02/01,01:30,0.160,0.148,0.231,0.223,0.224,0.127,0.080,north-northwest,3.5,No
2022/02/01,01:40,0.160,0.147,0.231,0.224,0.224,0.127,0.080,north-northwest,4.7,No
2022/02/01,01:50,0.160,0.147,0.231,0.223,0.225,0.126,0.080,north-northwest,5.0,No
2022/02/01,02:00,0.160,0.147,0.231,0.223,0.225,0.127,0.080,north-northwest,4.7,No
2022/02/01,02:10,0.160,0.147,0.232,0.223,0.225,0.126,0.080,north-northwest,4.6,No
2022/02/01,02:20,0.160,0.147,0.230,0.223,0.225,0.127,0.080,northwest,3.5,No
2022/02/01,02:30,0.160,0.147,0.231,0.223,0.224,0.127,0.080,north-northwest,3.3,No
2022/02/01,02:40,0.160,0.147,0.231,0.224,0.225,0.126,0.080,north-northwest,3.3,No
2022/02/01,02:50,0.159,0.147,0.231,0.224,0.225,0.127,0.081,north,3.2,No
2022/02/01,03:00,0.160,0.147,0.231,0.222,0.224,0.126,0.080,north,3.8,No
2022/02/01,03:10,0.161,0.147,0.231,0.223,0.225,0.127,0.080,north-northeast,3.3,No
2022/02/01,03:20,0.160,0.147,0.232,0.224,0.225,0.127,0.081,north,2.4,No
2022/02/01,03:30,0.160,0.147,0.231,0.224,0.225,0.126,0.080,north-northwest,2.5,No
2022/02/01,03:40,0.159,0.148,0.230,0.222,0.224,0.126,0.080,north-northwest,2.5,No
2022/02/01,03:50,0.160,0.147,0.232,0.224,0.223,0.127,0.081,north-northwest,2.5,No
2022/02/01,04:00,0.160,0.147,0.231,0.224,0.224,0.127,0.080,north-northeast,1.8,No
2022/02/01,04:10,0.160,0.147,0.231,0.223,0.224,0.127,0.081,north,0.8,No
2022/02/01,04:20,0.160,0.146,0.230,0.223,0.224,0.125,0.080,northwest,1.4,No
2022/02/01,04:30,0.159,0.146,0.230,0.223,0.225,0.126,0.079,north,2.2,No
2022/02/01,04:40,0.159,0.147,0.230,0.224,0.224,0.127,0.079,northwest,3.0,No
2022/02/01,04:50,0.160,0.147,0.230,0.223,0.224,0.126,0.080,northwest,4.1,No
2022/02/01,05:00,0.160,0.147,0.231,0.223,0.224,0.126,0.080,north-northwest,4.1,No
2022/02/01,05:10,0.160,0.147,0.231,0.223,0.224,0.126,0.080,north-northwest,3.3,No
2022/02/01,05:20,0.159,0.147,0.231,0.223,0.225,0.126,0.080,north,3.5,No
2022/02/01,05:30,0.159,0.146,0.231,0.222,0.225,0.127,0.080,north,2.4,No
2022/02/01,05:40,0.160,0.146,0.230,0.221,0.225,0.126,0.080,north-northwest,3.0,No
2022/02/01,05:50,0.160,0.146,0.231,0.223,0.224,0.127,0.079,northwest,5.4,No
2022/02/01,06:00,0.160,0.146,0.230,0.222,0.224,0.126,0.080,northwest,3.5,No
2022/02/01,06:10,0.159,0.147,0.229,0.223,0.225,0.126,0.080,northwest,4.1,No
2022/02/01,06:20,0.160,0.146,0.229,0.224,0.224,0.127,0.081,northwest,3.3,No
2022/02/01,06:30,0.160,0.146,0.230,0.223,0.224,0.125,0.080,north-northwest,4.4,No
2022/02/01,06:40,0.158,0.147,0.231,0.222,0.224,0.126,0.080,northwest,5.0,No
2022/02/01,06:50,0.160,0.146,0.230,0.223,0.223,0.126,0.079,northwest,4.1,No
2022/02/01,07:00,0.159,0.147,0.231,0.222,0.224,0.126,0.079,northwest,4.0,No
2022/02/01,07:10,0.159,0.146,0.229,0.222,0.224,0.126,0.080,north-northwest,4.9,No
2022/02/01,07:20,0.160,0.147,0.230,0.223,0.224,0.126,0.080,north-northwest,5.7,No
2022/02/01,07:30,0.160,0.147,0.230,0.222,0.224,0.126,0.080,north-northwest,3.8,No
2022/02/01,07:40,0.159,0.146,0.230,0.222,0.224,0.126,0.080,north-northwest,3.8,No
2022/02/01,07:50,0.159,0.146,0.230,0.222,0.224,0.125,0.080,north,2.4,No
2022/02/01,08:00,0.160,0.147,0.229,0.223,0.224,0.126,0.080,north,1.6,No
2022/02/01,08:10,0.160,0.146,0.229,0.222,0.224,0.126,0.079,-,CALM,No
2022/02/01,08:20,0.159,0.147,0.230,0.222,0.223,0.126,0.080,southeast,0.8,No
2022/02/01,08:30,0.160,0.146,0.230,0.222,0.223,0.126,0.079,northeast,0.7,No
2022/02/01,08:40,0.160,0.147,0.230,0.222,0.224,0.125,0.079,east-southeast,1.0,No
2022/02/01,08:50,0.160,0.146,0.230,0.222,0.224,0.125,0.079,east-southeast,1.6,No
2022/02/01,09:00,0.160,0.146,0.230,0.222,0.224,0.126,0.079,southeast,1.6,No
2022/02/01,09:10,0.161,0.146,0.230,0.222,0.225,0.125,0.079,east-southeast,1.4,No
2022/02/01,09:20,0.160,0.147,0.230,0.222,0.226,0.126,0.079,southeast,1.3,No
2022/02/01,09:30,0.160,0.146,0.231,0.222,0.225,0.125,0.080,east-northeast,1.6,No
2022/02/01,09:40,0.160,0.146,0.229,0.222,0.224,0.126,0.080,east-northeast,1.6,No
2022/02/01,09:50,0.159,0.146,0.230,0.220,0.224,0.126,0.080,north-northeast,2.5,No
2022/02/01,10:00,0.159,0.146,0.229,0.223,0.224,0.127,0.079,east-southeast,2.4,No
2022/02/01,10:10,0.160,0.146,0.231,0.222,0.224,0.126,0.080,northwest,1.6,No
2022/02/01,10:20,0.158,0.146,0.230,0.221,0.224,0.126,0.080,east-southeast,1.1,No
2022/02/01,10:30,0.159,0.147,0.230,0.222,0.225,0.125,0.080,west,4.1,No
2022/02/01,10:40,0.158,0.146,0.229,0.222,0.223,0.126,0.080,west-northwest,2.4,No
2022/02/01,10:50,0.159,0.145,0.229,0.223,0.224,0.125,0.080,west-northwest,4.4,No
2022/02/01,11:00,0.159,0.147,0.229,0.222,0.224,0.125,0.080,west,3.8,No
2022/02/01,11:10,0.159,0.147,0.230,0.224,0.224,0.127,0.080,west,4.0,No
2022/02/01,11:20,0.159,0.146,0.230,0.224,0.227,0.126,0.080,northwest,9.1,No
2022/02/01,11:30,0.160,0.147,0.229,0.222,0.223,0.126,0.080,west-northwest,7.3,No
2022/02/01,11:40,0.159,0.147,0.230,0.223,0.226,0.126,0.079,west,5.8,No
2022/02/01,11:50,0.159,0.146,0.231,0.221,0.224,0.127,0.080,west,8.3,No
2022/02/01,12:00,0.160,0.146,0.230,0.222,0.224,0.126,0.079,west,10.0,No
2022/02/01,12:10,0.159,0.145,0.230,0.223,0.224,0.127,0.080,west,7.4,No
2022/02/01,12:20,0.158,0.146,0.230,0.222,0.224,0.127,0.080,west,7.6,No
2022/02/01,12:30,0.159,0.147,0.230,0.223,0.225,0.127,0.080,west,8.0,No
2022/02/01,12:40,0.159,0.147,0.230,0.223,0.223,0.125,0.080,west,8.9,No
2022/02/01,12:50,0.160,0.147,0.230,0.221,0.224,0.126,0.080,west,9.0,No
2022/02/01,13:00,0.159,0.147,0.230,0.224,0.225,0.126,0.080,west,10.0,No
2022/02/01,13:10,0.160,0.147,0.231,0.221,0.226,0.127,0.080,west-northwest,8.8,No
2022/02/01,13:20,0.160,0.147,0.231,0.223,0.224,0.127,0.080,west,7.6,No
2022/02/01,13:30,0.158,0.146,0.230,0.222,0.224,0.126,0.080,west,9.6,No
2022/02/01,13:40,0.159,0.147,0.231,0.221,0.226,0.126,0.080,west,7.9,No
2022/02/01,13:50,0.159,0.146,0.231,0.224,0.223,0.126,0.080,west,8.6,No
2022/02/01,14:00,0.160,0.146,0.229,0.221,0.225,0.127,0.079,west,7.0,No
2022/02/01,14:10,0.159,0.147,0.231,0.223,0.225,0.127,0.080,west,5.2,No
2022/02/01,14:20,0.160,0.147,0.230,0.223,0.225,0.127,0.080,west,5.1,No
2022/02/01,14:30,0.160,0.146,0.231,0.222,0.225,0.126,0.080,west-northwest,4.6,No
2022/02/01,14:40,0.160,0.147,0.230,0.224,0.224,0.126,0.080,west-northwest,7.7,No
2022/02/01,14:50,0.160,0.147,0.232,0.224,0.226,0.126,0.080,west-northwest,6.8,No
2022/02/01,15:00,0.160,0.147,0.231,0.223,0.224,0.125,0.080,west-northwest,5.2,No
2022/02/01,15:10,0.160,0.146,0.231,0.223,0.224,0.126,0.080,west,6.3,No
2022/02/01,15:20,0.159,0.147,0.231,0.224,0.226,0.126,0.080,west-northwest,7.6,No
2022/02/01,15:30,0.160,0.147,0.229,0.223,0.224,0.128,0.080,west-northwest,6.3,No
2022/02/01,15:40,0.161,0.147,0.232,0.224,0.225,0.126,0.080,west-northwest,5.1,No
2022/02/01,15:50,0.160,0.147,0.231,0.223,0.225,0.127,0.080,west-northwest,3.5,No
2022/02/01,16:00,0.159,0.147,0.232,0.224,0.225,0.126,0.080,west,7.0,No
2022/02/01,16:10,0.161,0.147,0.231,0.224,0.225,0.127,0.081,west,5.9,No
2022/02/01,16:20,0.159,0.148,0.231,0.224,0.225,0.127,0.080,northwest,1.9,No
2022/02/01,16:30,0.159,0.147,0.230,0.224,0.225,0.128,0.080,northwest,2.4,No
2022/02/01,16:40,0.161,0.147,0.231,0.224,0.226,0.127,0.080,west-northwest,3.3,No
2022/02/01,16:50,0.159,0.147,0.231,0.224,0.225,0.126,0.080,west-northwest,5.7,No
2022/02/01,17:00,0.160,0.147,0.230,0.224,0.226,0.127,0.080,west-northwest,5.7,No
2022/02/01,17:10,0.159,0.147,0.230,0.224,0.225,0.127,0.080,west-northwest,5.5,No
2022/02/01,17:20,0.160,0.147,0.231,0.223,0.224,0.127,0.079,west-northwest,3.7,No
2022/02/01,17:30,0.159,0.147,0.231,0.223,0.227,0.126,0.079,west,3.0,No
2022/02/01,17:40,0.160,0.147,0.230,0.224,0.225,0.127,0.081,west,2.2,No
2022/02/01,17:50,0.159,0.148,0.231,0.223,0.224,0.127,0.080,west,2.5,No
2022/02/01,18:00,0.160,0.146,0.231,0.224,0.224,0.127,0.080,west,4.4,No
2022/02/01,18:10,0.160,0.148,0.231,0.224,0.223,0.126,0.081,west,5.2,No
2022/02/01,18:20,0.160,0.147,0.231,0.223,0.225,0.127,0.080,west-northwest,5.4,No
2022/02/01,18:30,0.160,0.147,0.230,0.224,0.224,0.127,0.080,west-northwest,4.3,No
2022/02/01,18:40,0.160,0.147,0.231,0.225,0.224,0.126,0.080,west,4.8,No
2022/02/01,18:50,0.160,0.147,0.231,0.224,0.225,0.126,0.081,west-northwest,3.3,No
2022/02/01,19:00,0.159,0.147,0.230,0.223,0.225,0.127,0.080,northwest,2.9,No
2022/02/01,19:10,0.160,0.146,0.231,0.223,0.225,0.127,0.081,north-northwest,2.1,No
2022/02/01,19:20,0.160,0.148,0.232,0.224,0.225,0.127,0.080,northwest,2.5,No
2022/02/01,19:30,0.160,0.148,0.231,0.225,0.225,0.126,0.080,north-northwest,3.0,No
2022/02/01,19:40,0.161,0.148,0.231,0.224,0.225,0.126,0.080,northwest,4.3,No
2022/02/01,19:50,0.160,0.147,0.231,0.223,0.225,0.126,0.081,north-northwest,4.7,No
2022/02/01,20:00,0.160,0.147,0.231,0.224,0.224,0.127,0.081,north,5.5,No
2022/02/01,20:10,0.160,0.148,0.231,0.225,0.225,0.127,0.081,north-northwest,4.4,No
2022/02/01,20:20,0.160,0.148,0.231,0.224,0.225,0.127,0.080,northwest,5.5,No
2022/02/01,20:30,0.160,0.148,0.231,0.225,0.225,0.126,0.080,northwest,5.2,No
2022/02/01,20:40,0.160,0.148,0.233,0.223,0.224,0.127,0.080,north-northwest,4.9,No
2022/02/01,20:50,0.160,0.148,0.230,0.224,0.225,0.127,0.080,north-northwest,5.2,No
2022/02/01,21:00,0.160,0.149,0.231,0.224,0.225,0.127,0.081,north-northwest,5.8,No
2022/02/01,21:10,0.160,0.147,0.231,0.224,0.224,0.127,0.081,north-northwest,6.5,No
2022/02/01,21:20,0.160,0.148,0.232,0.224,0.226,0.127,0.080,northwest,7.1,No
2022/02/01,21:30,0.161,0.147,0.232,0.224,0.226,0.128,0.081,northwest,7.7,No
2022/02/01,21:40,0.161,0.148,0.232,0.225,0.226,0.128,0.080,north-northwest,3.7,No
2022/02/01,21:50,0.161,0.148,0.231,0.225,0.225,0.127,0.081,northwest,4.7,Yes
2022/02/01,22:00,0.161,0.148,0.232,0.225,0.226,0.127,0.080,west-northwest,5.0,Yes
2022/02/01,22:10,0.161,0.148,0.233,0.223,0.226,0.128,0.081,west-northwest,3.5,Yes
2022/02/01,22:20,0.161,0.149,0.233,0.223,0.225,0.127,0.080,northwest,1.6,Yes
2022/02/01,22:30,0.160,0.148,0.232,0.225,0.226,0.127,0.081,west-northwest,1.0,Yes
2022/02/01,22:40,0.160,0.148,0.231,0.224,0.225,0.128,0.081,west-northwest,1.6,No
2022/02/01,22:50,0.160,0.147,0.231,0.224,0.226,0.128,0.080,northwest,1.3,No
2022/02/01,23:00,0.161,0.147,0.231,0.225,0.225,0.127,0.080,north,0.7,No
2022/02/01,23:10,0.161,0.147,0.232,0.224,0.226,0.127,0.081,north,0.5,No
2022/02/01,23:20,0.161,0.148,0.231,0.223,0.225,0.127,0.081,west-northwest,0.7,No
2022/02/01,23:30,0.160,0.148,0.232,0.224,0.225,0.126,0.081,west-northwest,0.8,No
2022/02/01,23:40,0.160,0.148,0.231,0.225,0.225,0.127,0.080,northwest,1.3,No
2022/02/01,23:50,0.161,0.147,0.231,0.223,0.225,0.127,0.081,northwest,0.7,No
